Paganella, Italy

9:18 PM CET on February 19, 2018 (GMT +0100)
Paganella

Weather History for LIVP - May, 2013

Change the Weather History Date:

Saturday, May 4, 2013

  Actual Average Record
Temperature  
Mean Temperature 40 °F -  
Max Temperature 46 °F 45 °F 53 °F (2003)
Min Temperature 33 °F 34 °F 24 °F (2014)
Degree Days  
Heating Degree Days 26    
Moisture  
Dew Point 29 °F    
Average Humidity 67    
Maximum Humidity 93    
Minimum Humidity 35    
Precipitation  
Precipitation 0.00 in 0.09 in - ()
Sea Level Pressure  
Sea Level Pressure 30.06 in    
Wind  
Wind Speed 7 mph ()    
Max Wind Speed 14 mph    
Max Gust Speed -    
Visibility 7.3 miles    
Events      
Averages and records for this station are not official NWS values.
T = Trace of Precipitation, MM = Missing Value Source: Averaged Metar Reports

Daily Weather History Graph

Daily Weather History Graph

Search for Another Location

Airport or City:

Trip Planner

Search our weather history database for the weather conditions in past years. The results will help you decide how hot, cold, wet, or windy it might be!

Date:

Astronomy

May. 04, 2013 Rise Set
Actual Time 5:57 AM CEST 8:28 PM CEST
Civil Twilight 5:24 AM CEST 9:01 PM CEST
Nautical Twilight 4:42 AM CEST 9:44 PM CEST
Astronomical Twilight 3:54 AM CEST 10:32 PM CEST
Moon 3:05 AM CEST (5/4) 2:51 PM CEST (5/4)
Length of Visible Light 15h 37m
Length of Day
14h 30m
Waning Crescent, 29% of the Moon is Illuminated
May 4
Waning Crescent
May 10
New
May 18
First Quarter
May 25
Full
May 31
Last Quarter

Hourly Weather History & Observations

Time (CEST) Temp. Windchill Dew Point Humidity Pressure Visibility Wind Dir Wind Speed Gust Speed Precip Events Conditions
12:55 AM 35.6 °F 27.1 °F 24.8 °F 65% 30.04 in 6.2 mi SSW 12.7 mph - N/A   Partly Cloudy
1:55 AM 33.8 °F 25.8 °F 30.2 °F 87% 30.04 in 6.2 mi SSW 10.4 mph - N/A   Partly Cloudy
2:00 AM 35 °F - 31 °F 80%  in 25 mi SSW 10.4 mph - -   Partly Cloudy
2:55 AM 35.6 °F 28.6 °F 32.0 °F 87% 30.04 in 6.2 mi South 9.2 mph - N/A   Partly Cloudy
3:55 AM 33.8 °F 27.0 °F 32.0 °F 93% 30.01 in - South 8.1 mph - N/A   Clear
4:55 AM 33.8 °F 27.0 °F 30.2 °F 87% 30.01 in - South 8.1 mph - N/A   Clear
5:00 AM 34 °F - 30 °F 79%  in 19 mi South 8.1 mph - -  
5:55 AM 33.8 °F 28.6 °F 24.8 °F 70% 30.01 in - South 5.8 mph - N/A   Clear
6:55 AM 33.8 °F 28.6 °F 24.8 °F 70% 30.01 in - South 5.8 mph - N/A   Clear
7:55 AM 35.6 °F 30.7 °F 28.4 °F 75% 30.04 in 6.2 mi South 5.8 mph - N/A   Scattered Clouds
8:00 AM 36 °F - 28 °F 65%  in 9 mi South 5.8 mph - -   Partly Cloudy
8:55 AM 37.4 °F 34.9 °F 28.4 °F 70% 30.04 in 6.2 mi South 3.5 mph - N/A   Scattered Clouds
9:55 AM 33.8 °F 29.6 °F 26.6 °F 75% 30.04 in 6.2 mi South 4.6 mph - N/A   Scattered Clouds
10:55 AM 39.2 °F 35.9 °F 32.0 °F 75% 30.06 in 6.2 mi South 4.6 mph - N/A   Scattered Clouds
11:00 AM 39 °F - 33 °F 70%  in 12 mi South 4.6 mph - -   Partly Cloudy
11:55 AM 41.0 °F 38.0 °F 32.0 °F 70% 30.06 in 6.2 mi South 4.6 mph - N/A   Partly Cloudy
12:55 PM 44.6 °F 40.2 °F 30.2 °F 57% 30.09 in 6.2 mi South 8.1 mph - N/A   Partly Cloudy
1:55 PM 42.8 °F 37.0 °F 28.4 °F 57% 30.09 in 6.2 mi South 10.4 mph - N/A   Partly Cloudy
2:00 PM 43 °F - 29 °F 46%  in 31 mi South 10.4 mph - -   Scattered Clouds
2:55 PM 44.6 °F 38.8 °F 28.4 °F 53% 30.06 in 6.2 mi South 11.5 mph - N/A   Partly Cloudy
3:55 PM 44.6 °F 39.7 °F 24.8 °F 46% 30.06 in 6.2 mi South 9.2 mph - N/A   Partly Cloudy
4:55 PM 46.4 °F 41.5 °F 26.6 °F 46% 30.06 in 6.2 mi South 10.4 mph - N/A   Partly Cloudy
5:00 PM 46 °F - 27 °F 35%  in 28 mi South 10.4 mph - -   Scattered Clouds
5:55 PM 44.6 °F 38.1 °F 33.8 °F 66% 30.09 in 6.2 mi WSW 13.8 mph - N/A   Partly Cloudy
6:55 PM 44.6 °F 39.2 °F 33.8 °F 66% 30.09 in 6.2 mi WSW 10.4 mph - N/A   Partly Cloudy
7:55 PM 41.0 °F 37.1 °F 32.0 °F 70% 30.09 in 6.2 mi South 5.8 mph - N/A   Partly Cloudy
8:00 PM 42 °F - 31 °F 55%  in 31 mi South 5.8 mph - -   Scattered Clouds
8:55 PM 39.2 °F 34.2 °F 32.0 °F 75% 30.09 in 6.2 mi South 6.9 mph - N/A   Partly Cloudy
9:55 PM 39.2 °F 35.9 °F 30.2 °F 70% 30.09 in - SSW 4.6 mph - N/A   Clear
10:55 PM 39.2 °F - 28.4 °F 65% 30.12 in - NW 2.3 mph - N/A   Clear
11:00 PM 40 °F - 29 °F 53%  in 25 mi NW 2.3 mph - -  
11:55 PM 37.4 °F 32.1 °F 30.2 °F 75% 30.12 in - North 6.9 mph - N/A   Clear